Rome, GA

11:32 PM EDT on March 29, 2017 (GMT -0400)
Russell

Weather History for KRMG - December, 2012

Change the Weather History Date:

Sunday, December 9, 2012

  Actual Average Record
Temperature  
Mean Temperature 64 °F 44 °F  
Max Temperature 73 °F 54 °F 75 °F (2007)
Min Temperature 55 °F 33 °F 14 °F (2006)
Degree Days  
Heating Degree Days 1 21  
Month to date heating degree days 183  
Since 1 July heating degree days 790  
Growing Degree Days 14 (Base 50)    
Moisture  
Dew Point 57 °F    
Average Humidity 84    
Maximum Humidity 100    
Minimum Humidity 55    
Precipitation  
Precipitation 0.00 in 0.17 in 1.29 in (2004)
Month to date precipitation 1.65  
Year to date precipitation 49.19  
Snow  
Snow 0.00 in - - ()
Month to date snowfall  
Since 1 July snowfall  
Snow Depth -    
Sea Level Pressure  
Sea Level Pressure 30.00 in    
Wind  
Wind Speed 2 mph (South)    
Max Wind Speed 9 mph    
Max Gust Speed -    
Visibility 8 miles    
Events Rain    
T = Trace of Precipitation, MM = Missing Value Source: NWS Daily Summary

Daily Weather History Graph

Daily Weather History Graph

Search for Another Location

Airport or City:

Trip Planner

Search our weather history database for the weather conditions in past years. The results will help you decide how hot, cold, wet, or windy it might be!

Date:

Astronomy

Dec. 09, 2012 Rise Set
Actual Time 7:35 AM EST 5:30 PM EST
Civil Twilight 7:07 AM EST 5:58 PM EST
Nautical Twilight 6:36 AM EST 6:29 PM EST
Astronomical Twilight 6:06 AM EST 7:00 PM EST
Moon 3:15 AM EST (12/9) 2:30 PM EST (12/9)
Length of Visible Light 10h 50m
Length of Day
9h 55m
Waning Crescent, 19% of the Moon is Illuminated
Dec 9
Waning Crescent
Dec 13
New
Dec 20
First Quarter
Dec 28
Full
Jan 4
Last Quarter

Hourly Weather History & Observations

Time (EST) Temp. Dew Point Humidity Pressure Visibility Wind Dir Wind Speed Gust Speed Precip Events Conditions
12:19 AM 57.2 °F 57.2 °F 100% 30.04 in 6.0 mi Calm Calm - 0.00 in Rain Light Rain
12:53 AM 59.0 °F 57.9 °F 96% 30.01 in 6.0 mi SE 3.5 mph - 0.00 in   Overcast
1:53 AM 57.9 °F 57.9 °F 100% 30.01 in 5.0 mi Calm Calm - N/A   Mostly Cloudy
2:53 AM 57.0 °F 57.0 °F 100% 30.01 in 5.0 mi Calm Calm - N/A   Overcast
3:41 AM 57.2 °F 57.2 °F 100% 30.02 in 4.0 mi Calm Calm - N/A   Overcast
3:53 AM 57.9 °F 57.0 °F 97% 30.01 in 5.0 mi Calm Calm - N/A   Overcast
4:53 AM 59.0 °F 57.9 °F 96% 30.01 in 6.0 mi Calm Calm - N/A   Overcast
5:53 AM 59.0 °F 57.9 °F 96% 30.02 in 6.0 mi Calm Calm - N/A   Overcast
6:53 AM 59.0 °F 57.9 °F 96% 30.03 in 6.0 mi Calm Calm - N/A   Overcast
7:53 AM 60.1 °F 59.0 °F 96% 30.04 in 4.0 mi South 5.8 mph - N/A   Overcast
8:18 AM 60.8 °F 60.8 °F 100% 30.06 in 5.0 mi South 5.8 mph - N/A   Overcast
8:53 AM 61.0 °F 60.1 °F 97% 30.04 in 6.0 mi Calm Calm - N/A   Overcast
9:19 AM 62.6 °F 60.8 °F 94% 30.06 in 9.0 mi Calm Calm - N/A   Mostly Cloudy
9:32 AM 62.6 °F 60.8 °F 94% 30.06 in 10.0 mi SSE 3.5 mph - N/A   Mostly Cloudy
9:43 AM 62.6 °F 60.8 °F 94% 30.06 in 10.0 mi South 4.6 mph - N/A   Mostly Cloudy
9:53 AM 63.0 °F 60.1 °F 90% 30.04 in 10.0 mi South 5.8 mph - N/A   Overcast
10:11 AM 64.4 °F 60.8 °F 88% 30.06 in 10.0 mi South 4.6 mph - N/A   Mostly Cloudy
10:53 AM 68.0 °F 60.1 °F 76% 30.04 in 10.0 mi South 5.8 mph - N/A   Mostly Cloudy
11:53 AM 69.1 °F 57.9 °F 68% 30.02 in 10.0 mi South 8.1 mph - N/A   Overcast
12:27 PM 68.0 °F 57.2 °F 68% 30.02 in 10.0 mi SSW 8.1 mph - N/A   Overcast
12:53 PM 69.1 °F 57.9 °F 68% 30.00 in 10.0 mi SSW 9.2 mph - N/A   Overcast
1:53 PM 69.1 °F 57.0 °F 65% 29.97 in 10.0 mi South 9.2 mph - N/A   Mostly Cloudy
2:53 PM 72.0 °F 55.9 °F 57% 29.96 in 10.0 mi South 8.1 mph - N/A   Partly Cloudy
3:53 PM 71.1 °F 54.0 °F 55% 29.96 in 10.0 mi SSW 4.6 mph - N/A   Mostly Cloudy
4:53 PM 69.1 °F 54.0 °F 58% 29.96 in 10.0 mi South 8.1 mph - N/A   Partly Cloudy
5:53 PM 64.9 °F 54.0 °F 68% 29.97 in 10.0 mi Calm Calm - N/A   Clear
6:53 PM 61.0 °F 53.1 °F 75% 29.96 in 10.0 mi Calm Calm - N/A   Clear
7:53 PM 57.9 °F 53.1 °F 84% 29.96 in 10.0 mi Calm Calm - N/A   Clear
8:53 PM 61.0 °F 55.0 °F 81% 29.96 in 10.0 mi South 6.9 mph - N/A   Clear
9:53 PM 60.1 °F 54.0 °F 80% 29.94 in 10.0 mi SSW 4.6 mph - N/A   Clear
10:53 PM 59.0 °F 54.0 °F 83% 29.93 in 10.0 mi Calm Calm - N/A   Clear
11:53 PM 55.9 °F 53.1 °F 90% 29.91 in 10.0 mi Calm Calm - N/A   Mostly Cloudy